[[{"header":{"parameterUnit":"m.s-1","parameterCategory":1,"la1":30.2991,"la2":30.254,"lo1":-89.0895,"lo2":-89.0444,"dy":0.0017,"dx":0.0017,"nx":28,"ny":28,"refTime":"2024-03-16T09:00:00:Z","depth":0,"parameterNumber":2,"parameterNumberName":"U-component_of_WINDS"},"data":[0,0,0,0,0,0,0,0,0,0,0,0,0,0,0,0,0,0,0,0,0,0,0,0,0,0,0,0,0,0,0,0,0,0,0,0,0,0,0,0,0,0,0,0,0,0,0,0,0,0,0,0,0,0,0,0,0,0,0.1106,0.1107,0,0.1157,0.1158,0.1159,0.1175,0.1174,0.1174,0.1174,0.1226,0.1228,0.123,0,0,0,0,0,0,0,0,0,0,0,0,0,0.102,0.1021,0.1106,0.1107,0.1107,0.1157,0.1158,0.1159,0.1175,0.1174,0.1174,0.1174,0.1226,0.1228,0.123,0,0,0,0,0,0,0,0,0,0,0,0,0,0.1063,0.1022,0.1106,0.1121,0.1123,0.1157,0.1158,0.1159,0.1175,0.1174,0.1174,0.1174,0.1225,0.1228,0.123,0.1253,0,0,0.1238,0.1239,0,0,0,0,0,0,0,0,0.106,0.1066,0.1118,0.112,0.1122,0.1159,0.1147,0.119,0.1175,0.1155,0.1174,0.1173,0.1204,0.1208,0.1219,0.1255,0.1257,0.1238,0.1239,0.124,0.1241,0,0,0,0,0,0,0,0.1057,0.1064,0.1126,0.1119,0.1122,0.1125,0.1131,0.1155,0.1181,0.1157,0.1158,0.1164,0.1205,0.1217,0.122,0.1258,0.1238,0.124,0.1241,0.1242,0.1312,0.1313,0,0,0,0,0,0,0.1052,0.1061,0.1125,0.1128,0.109,0.1127,0.1133,0.1148,0.1181,0.1186,0.1164,0.1164,0.1213,0.1217,0.1222,0.1249,0.124,0.1243,0.1244,0.1312,0.1312,0.1313,0,0,0,0,0,0,0.105,0.1057,0.1123,0.1095,0.1103,0.1129,0.1145,0.1149,0.116,0.1187,0.1191,0.1171,0.1212,0.1219,0.1244,0.1251,0.1244,0.1246,0.1311,0.1312,0.1313,0.1304,0,0,0,0,0,0,0.1047,0.1057,0.1066,0.1095,0.1105,0.1144,0.1145,0.115,0.1164,0.1165,0.1194,0.1199,0.1213,0.1241,0.1247,0.1255,0.1248,0.1311,0.1312,0.1312,0.1304,0.1305,0.1305,0,0,0,0,0,0.1044,0.1062,0.1067,0.1074,0.1117,0.1145,0.115,0.1166,0.1165,0.1174,0.119,0.1198,0.1249,0.1243,0.125,0.1259,0.1311,0.1312,0.1312,0.1304,0.1305,0.1305,0,0,0,0,0,0,0.1034,0.1066,0.1072,0.11,0.1119,0.1148,0.116,0.1167,0.1188,0.1188,0.1206,0.1213,0.1236,0.125,0.1242,0.1281,0.128,0.1282,0.1271,0.1272,0.1273,0.1269,0.125,0,0,0,0,0,0.1035,0.1055,0.1082,0.1104,0.1114,0.1135,0.1148,0.1158,0.1179,0.1188,0.1206,0.1226,0.1247,0.126,0.1281,0.1306,0.1312,0.1315,0.1315,0.1316,0.1318,0.133,0.1331,0.1316,0.1316,0.1316,0,0,0.1038,0.1058,0.1069,0.1103,0.1119,0.1139,0.1142,0.1163,0.1178,0.1191,0.1216,0.123,0.1253,0.1278,0.129,0.129,0.1323,0.1317,0.1317,0.1319,0.1331,0.1332,0.1334,0.1316,0.1316,0.1316,0,0,0.1052,0.1069,0.1089,0.1105,0.1129,0.1143,0.1147,0.1174,0.1184,0.1209,0.1219,0.1235,0.1271,0.1287,0.13,0.1316,0.1323,0.1322,0.1325,0.1337,0.1338,0.1339,0.1344,0.1346,0.1324,0.1324,0.1324,0,0.1052,0.1082,0.1098,0.1118,0.1132,0.1143,0.1162,0.1177,0.1207,0.1216,0.1216,0.1259,0.1276,0.1303,0.1307,0.1317,0.1322,0.132,0.1337,0.1338,0.1339,0.1344,0.1346,0.1324,0.1324,0.1324,0.1324,0,0.108,0.1101,0.1113,0.1141,0.1156,0.1176,0.1193,0.1206,0.1214,0.1227,0.1252,0.1272,0.1296,0.1303,0.1312,0.1331,0.133,0.1333,0.1333,0.134,0.1345,0.1347,0.1324,0.1324,0.1324,0.1324,0,0,0.1091,0.1126,0.113,0.1142,0.1169,0.1185,0.1204,0.1227,0.1237,0.1256,0.1272,0.13,0.1302,0.1316,0.1327,0.1337,0.1347,0.1338,0.1339,0.1339,0.1368,0.1366,0.1368,0.1351,0.1352,0.1352,0.1366,0,0.1109,0.1144,0.1157,0.1185,0.1203,0.1214,0.123,0.1247,0.1259,0.1276,0.1289,0.1309,0.131,0.1319,0.1329,0.1344,0.1353,0.1343,0.1366,0.1366,0.136,0.1371,0.1369,0.1382,0.1368,0.1369,0.1369,0,0.1134,0.1153,0.1183,0.1205,0.1213,0.1228,0.1248,0.1265,0.1284,0.1292,0.1306,0.1315,0.1334,0.1331,0.1357,0.1349,0.1359,0.1367,0.1368,0.1371,0.1368,0.1374,0.1386,0.1388,0.1372,0.1372,0.1372,0,0.1138,0.1171,0.1192,0.1202,0.1229,0.1239,0.125,0.1269,0.1281,0.1299,0.1307,0.1327,0.1338,0.1352,0.1366,0.1363,0.139,0.1389,0.1396,0.1396,0.1402,0.1401,0.1416,0.1408,0.1408,0.1408,0.1408,0,0.1156,0.1173,0.1194,0.1208,0.1227,0.1241,0.126,0.1272,0.1288,0.1303,0.1313,0.1327,0.1344,0.1359,0.137,0.1388,0.1393,0.14,0.1402,0.1399,0.1398,0.1406,0.1405,0.1409,0.1408,0.1408,0.1408,0,0.1164,0.1179,0.1203,0.1226,0.1232,0.1245,0.1264,0.1277,0.1288,0.1307,0.1312,0.133,0.1349,0.1363,0.1388,0.1394,0.1414,0.1417,0.1407,0.1409,0.1415,0.1414,0.1435,0.1438,0.1428,0.1428,0.1428,0,0.1174,0.1188,0.1212,0.1222,0.1234,0.1251,0.1263,0.1277,0.1289,0.131,0.132,0.1339,0.1355,0.1384,0.1399,0.1417,0.142,0.1426,0.1423,0.1418,0.1419,0.1418,0.1419,0.1427,0.1427,0.1427,0.1427,0,0.1191,0.1197,0.1214,0.1233,0.1247,0.1263,0.1279,0.1286,0.1303,0.1316,0.1334,0.1347,0.1371,0.1389,0.1408,0.1419,0.1425,0.1427,0.143,0.1427,0.142,0.1423,0.1408,0.1427,0.1427,0.1427,0.1427,0.1427,0.12,0.1212,0.123,0.1248,0.1261,0.1275,0.1288,0.13,0.1316,0.1337,0.1344,0.1363,0.1379,0.1405,0.1416,0.1431,0.1431,0.1435,0.1436,0.1437,0.1436,0.1417,0.1434,0.1434,0.1434,0.1434,0.1434,0,0.1216,0.1228,0.1245,0.1266,0.128,0.1284,0.1301,0.1312,0.1328,0.1344,0.1359,0.1379,0.1396,0.1412,0.1429,0.1438,0.1441,0.1442,0.1441,0.1444,0.1435,0.1431,0.1439,0.1439,0.1439,0.1439,0.1439,0.1439,0.1227,0.1246,0.1254,0.128,0.1291,0.131,0.1319,0.1332,0.1344,0.1366,0.138,0.139,0.1405,0.1423,0.1438,0.1442,0.1448,0.1449,0.1453,0.1445,0.1444,0.1444,0.144,0.145,0.145,0.146,0.1461,0.1461]},{"header":{"parameterUnit":"m.s-1","parameterCategory":1,"la1":30.2991,"la2":30.254,"lo1":-89.0895,"lo2":-89.0444,"dy":0.0017,"dx":0.0017,"nx":28,"ny":28,"refTime":"2024-03-16T09:00:00:Z","depth":0,"parameterNumber":3,"parameterNumberName":"V-component_of_WINDS"},"data":[0,0,0,0,0,0,0,0,0,0,0,0,0,0,0,0,0,0,0,0,0,0,0,0,0,0,0,0,0,0,0,0,0,0,0,0,0,0,0,0,0,0,0,0,0,0,0,0,0,0,0,0,0,0,0,0,0,0,2.664,2.664,0,2.6649,2.6649,2.6649,2.6655,2.6655,2.6655,2.6655,2.6664,2.6664,2.6664,0,0,0,0,0,0,0,0,0,0,0,0,0,2.6627,2.6628,2.664,2.664,2.664,2.6649,2.6649,2.6649,2.6655,2.6655,2.6655,2.6655,2.6664,2.6664,2.6664,0,0,0,0,0,0,0,0,0,0,0,0,0,2.6634,2.6628,2.664,2.6644,2.6645,2.6649,2.6649,2.6649,2.6655,2.6655,2.6655,2.6655,2.6663,2.6664,2.6664,2.6664,0,0,2.6665,2.6665,0,0,0,0,0,0,0,0,2.6634,2.6635,2.6643,2.6644,2.6644,2.6651,2.6647,2.6654,2.6655,2.6651,2.6655,2.6656,2.6659,2.666,2.6661,2.6664,2.6664,2.6665,2.6665,2.6665,2.6665,0,0,0,0,0,0,0,2.6633,2.6634,2.6643,2.6644,2.6644,2.6645,2.6647,2.6649,2.6655,2.6652,2.6652,2.6653,2.666,2.6661,2.6662,2.6665,2.6665,2.6665,2.6665,2.6665,2.6667,2.6667,0,0,0,0,0,0,2.6632,2.6634,2.6643,2.6643,2.6639,2.6646,2.6647,2.6649,2.6655,2.6656,2.6653,2.6653,2.6661,2.6661,2.6662,2.6662,2.6665,2.6665,2.6665,2.6668,2.6667,2.6667,0,0,0,0,0,0,2.6632,2.6633,2.6643,2.6639,2.664,2.6646,2.6648,2.6649,2.665,2.6656,2.6657,2.6653,2.6661,2.6661,2.6663,2.6662,2.6665,2.6666,2.6668,2.6668,2.6667,2.6662,0,0,0,0,0,0,2.6632,2.6633,2.6633,2.6639,2.664,2.6644,2.6648,2.6649,2.6651,2.6651,2.6656,2.6657,2.6661,2.6663,2.6663,2.6663,2.6666,2.6668,2.6668,2.6667,2.6662,2.6662,2.6661,0,0,0,0,0,2.6631,2.6631,2.6633,2.6634,2.6641,2.6644,2.6645,2.6649,2.6651,2.6651,2.6654,2.6657,2.6662,2.6663,2.6664,2.6663,2.6668,2.6668,2.6667,2.6662,2.6662,2.6661,0,0,0,0,0,0,2.6625,2.6632,2.6634,2.6636,2.6639,2.6645,2.6645,2.6648,2.6651,2.6651,2.6656,2.6657,2.6658,2.6661,2.6662,2.6663,2.6665,2.6665,2.6661,2.6661,2.666,2.6659,2.6666,0,0,0,0,0,2.6623,2.6626,2.6632,2.6633,2.6634,2.664,2.6641,2.6644,2.6648,2.6649,2.6653,2.6656,2.6658,2.666,2.6662,2.6663,2.6664,2.6662,2.6662,2.6661,2.6661,2.6661,2.6661,2.6667,2.6667,2.6667,0,0,2.6621,2.6625,2.6626,2.6632,2.6635,2.6637,2.6641,2.6643,2.6644,2.6649,2.6651,2.6654,2.6658,2.6659,2.666,2.6661,2.666,2.6661,2.6661,2.6661,2.6661,2.666,2.666,2.6667,2.6667,2.6667,0,0,2.6617,2.6621,2.6622,2.6625,2.663,2.6633,2.6633,2.6639,2.6641,2.6643,2.6647,2.6648,2.6652,2.6655,2.6657,2.6654,2.6657,2.6655,2.6652,2.6652,2.6651,2.6651,2.665,2.6649,2.6655,2.6655,2.6655,0,2.6614,2.6617,2.6622,2.6624,2.6626,2.6631,2.6632,2.6635,2.664,2.6641,2.6643,2.6648,2.665,2.6652,2.6651,2.6653,2.6653,2.6654,2.6651,2.6651,2.665,2.6649,2.6649,2.6654,2.6654,2.6654,2.6654,0,2.6612,2.6615,2.6615,2.662,2.6622,2.6623,2.6628,2.663,2.6633,2.6636,2.6638,2.6641,2.6645,2.6645,2.6648,2.6647,2.6648,2.665,2.6653,2.6649,2.6648,2.6648,2.6654,2.6654,2.6654,2.6654,0,0,2.6605,2.6613,2.6613,2.6615,2.662,2.6622,2.6624,2.6627,2.6628,2.6631,2.6632,2.6636,2.6638,2.664,2.6643,2.6643,2.664,2.6645,2.6645,2.6644,2.664,2.6638,2.6637,2.6642,2.6642,2.6642,2.6639,0,2.6602,2.6605,2.661,2.6611,2.6613,2.6618,2.6619,2.6623,2.6626,2.6628,2.6631,2.6633,2.6636,2.6637,2.6637,2.6641,2.664,2.6641,2.6643,2.6643,2.6642,2.6637,2.6634,2.6631,2.6639,2.6639,2.6639,0,2.6599,2.6602,2.6604,2.6609,2.661,2.6611,2.6615,2.6617,2.662,2.6623,2.6625,2.6628,2.663,2.6632,2.6634,2.6635,2.6636,2.6638,2.6638,2.6638,2.664,2.6636,2.663,2.663,2.6638,2.6638,2.6638,0,2.6593,2.6598,2.6599,2.6601,2.6607,2.6608,2.6611,2.6614,2.6616,2.6619,2.662,2.6623,2.6625,2.6627,2.6631,2.6632,2.6632,2.6635,2.6633,2.6633,2.6633,2.6633,2.6627,2.6634,2.6634,2.6634,2.6634,0,2.6589,2.659,2.6597,2.6598,2.6599,2.6604,2.6605,2.6608,2.6611,2.6612,2.6617,2.6618,2.6623,2.6625,2.6628,2.6629,2.663,2.6631,2.6632,2.6631,2.663,2.6631,2.6631,2.6634,2.6634,2.6634,2.6634,0,2.6582,2.6587,2.6589,2.6595,2.6596,2.6597,2.6602,2.6603,2.6606,2.6608,2.6608,2.6613,2.6616,2.662,2.6623,2.6625,2.6625,2.6627,2.6624,2.6624,2.6623,2.6623,2.6617,2.6616,2.6624,2.6624,2.6624,0,2.6579,2.658,2.6586,2.6587,2.659,2.6592,2.6594,2.6599,2.6601,2.6605,2.6605,2.6608,2.661,2.6614,2.6617,2.662,2.6621,2.6619,2.6621,2.662,2.6621,2.662,2.662,2.6618,2.6618,2.6618,2.6618,0,2.6573,2.6576,2.6578,2.6582,2.6584,2.6587,2.659,2.6591,2.6596,2.6598,2.66,2.6602,2.6606,2.6608,2.6611,2.6613,2.6616,2.6617,2.6617,2.6615,2.6614,2.6614,2.6622,2.6617,2.6617,2.6617,2.6617,2.6617,2.6568,2.6569,2.6573,2.6576,2.6579,2.6582,2.6583,2.6587,2.6589,2.6592,2.6595,2.6597,2.6601,2.6605,2.6607,2.6609,2.661,2.661,2.661,2.661,2.6609,2.6614,2.6609,2.6609,2.6609,2.661,2.661,0,2.6562,2.6565,2.6568,2.6572,2.6574,2.6577,2.6581,2.6582,2.6584,2.6587,2.659,2.6592,2.6595,2.6599,2.6601,2.6602,2.6603,2.6602,2.6602,2.6603,2.6608,2.6607,2.6601,2.6601,2.6601,2.6601,2.6601,2.6601,2.6559,2.6561,2.6564,2.6567,2.657,2.6572,2.6574,2.6576,2.6579,2.6582,2.6584,2.6587,2.659,2.6593,2.6595,2.6596,2.6597,2.6595,2.6597,2.6601,2.6602,2.6603,2.6603,2.6596,2.6596,2.6592,2.6592,2.6592]}]]